Regional Weather Roundup
Issued by NWS

Home | Current Version | Previous Version | Graphics & Text | Print | Product List | Glossary On
Versions: 1 2 3 4 5 6 7 8 9 10 11 12 13 14 15 16 17 18 19 20 21 22 23 24 25 26 27 28 29 30 31 32 33 34 35 36 37 38 39 40 41 42 43 44 45 46 47 48 49 50
670
ASUS43 KBIS 190102
RWRND

NORTH DAKOTA REGIONAL WEATHER ROUNDUP
NATIONAL WEATHER SERVICE BISMARCK ND
800 PM CDT WED OCT 18 2017

NOTE: "FAIR" INDICATES FEW OR NO CLOUDS BELOW 12,000 FEET WITH NO
SIGNIFICANT WEATHER AND/OR OBSTRUCTIONS TO VISIBILITY.


NDZ001>003-009>011-017-190200-
NORTHWEST NORTH DAKOTA

CITY           SKY/WX    TMP DP  RH WIND       PRES   REMARKS
WILLISTON      CLOUDY    39  24  55 SW3       29.90S
MINOT          CLOUDY    47  24  40 SW6       29.90R
MINOT AFB      CLOUDY    40  21  47 W8        29.88S
$$

NDZ018>021-031>035-040>046-190200-
SOUTHWEST NORTH DAKOTA

CITY           SKY/WX    TMP DP  RH WIND       PRES   REMARKS
BISMARCK       CLOUDY    48  24  39 W5        29.96S
DICKINSON      CLOUDY    44  24  45 SW3       29.93R
GARRISON         N/A     47  23  38 W7        29.93R
HETTINGER ARPT CLOUDY    47  26  44 S3        29.97F
$$

NDZ004>008-012>016-024-026-027-054-190200-
NORTHEAST NORTH DAKOTA

CITY           SKY/WX    TMP DP  RH WIND       PRES   REMARKS
GRAND FORKS    PTCLDY    52  20  28 W10       29.87R
GRND FRKS AFB  CLEAR     52  19  27 W13       29.87R
DEVILS LAKE    CLEAR     48  27  44 W14       29.90R
$$

NDZ022-023-025-028>030-036>039-047>053-190200-
SOUTHEAST NORTH DAKOTA

CITY           SKY/WX    TMP DP  RH WIND       PRES   REMARKS
FARGO          CLEAR     51  22  31 W14       29.94R
JAMESTOWN      CLOUDY    48  22  35 W7        29.94S
$$





USA.gov is the U.S. government's official web portal to all federal, state and local government web resources and services.